Home > Weather > Zittau > Past weeks

Flag for Germany Weather for the Past 2 Weeks in Zittau, Saxony, Germany

Now
35 °F

Chilly.


Feels Like: 31 °F
Forecast: 32 / 45 °F
Wind: 5 mph from Southeast

Location: Liberec

Current Time: Feb 13, 2016 at 10:23:48 PM

Latest Report: Feb 13, 2016 at 10:00 PM


Visibility: 12 mi

Pressure: 29.29 "Hg

Humidity: 81%

Dew point: 30 °F

Location of ZittauLocation

Historic Weather in Zittau — Graph

°F

Zittau Temperature Yesterday

Maximum temperature yesterday: 38 °F (at 4:00 PM)
Minimum temperature yesterday: 29 °F (at 5:00 AM)
Average temperature yesterday: 33 °F

High & Low Weather Summary for the Past Weeks

 TemperatureHumidityPressure
High51 °F (Feb 2, 1:00 PM)98% (Feb 1, 7:00 AM)30.35 "Hg (Feb 1, 7:00 AM)
Low26 °F (Feb 13, 7:00 AM)51% (Feb 8, 3:00 PM)29.18 "Hg (Feb 9, 10:00 PM)
Average39 °F77%29.81 "Hg
* Reported Jan 29 9:00 PM — Feb 13 9:00 PM, Zittau, Weather by CustomWeather, © 2016

Note: Actual official high and low records may vary slightly from our data, if they occured in-between our weather recording intervals... More about our weather records

Advertising

Zittau Weather History for the Previous 24 Hours

 ConditionsComfort  
Time TempWeatherWind HumidityBarometerVisibility
9:00 PM
Sat, Feb 13
36 °FPassing clouds.3 mph83%29.29 "Hg11 mi
8:00 PM35 °FOvercast.3 mph85%29.32 "Hg12 mi
7:00 PM35 °FPassing clouds.1 mph86%29.32 "Hg11 mi
6:00 PM34 °FChilly.1 mph87%29.35 "Hg7 mi
5:00 PM33 °FChilly.1 mph79%29.35 "Hg12 mi
4:00 PM38 °FScattered clouds.3 mph69%29.32 "Hg17 mi
3:00 PM38 °FPartly sunny.3 mph68%29.35 "Hg17 mi
2:00 PM39 °FPartly sunny.3 mph63%29.35 "Hg16 mi
1:00 PM39 °FPartly sunny.3 mph63%29.38 "Hg12 mi
12:00 PM37 °FPartly sunny.1 mph77%29.41 "Hg9 mi
11:00 AM34 °FOvercast.1 mph80%29.44 "Hg7 mi
10:00 AM32 °FPartly sunny.1 mph84%29.44 "Hg9 mi
9:00 AM30 °FPartly sunny.1 mph96%29.44 "Hg9 mi
8:00 AM28 °FPartly sunny.1 mph97%29.47 "Hg9 mi
7:00 AM26 °FPassing clouds.1 mph97%29.47 "Hg9 mi
6:00 AM26 °FChilly.No wind94%29.47 "Hg7 mi
5:00 AM28 °FChilly.1 mph92%29.47 "Hg12 mi
Weather by CustomWeather, © 2016

See weather overviewHow to use our weather pages